Regional Weather Roundup
Issued by NWS

Home | Current Version | Previous Version | Graphics & Text | Print | Product List | Glossary On
Versions: 1 2 3 4 5 6 7 8 9 10 11 12 13 14 15 16 17 18 19 20 21 22 23 24 25 26 27 28 29 30 31 32 33 34 35 36 37 38 39 40 41 42 43 44 45 46 47 48 49 50
000
ASUS43 KLMK 232002
RWRKY
KENTUCKY REGIONAL WEATHER ROUNDUP
NATIONAL WEATHER SERVICE LOUISVILLE KY
300 PM EST SUN NOV 23 2014

NOTE "FAIR" INDICATES FEW OR NO CLOUDS BELOW 12,000 FEET
WITH NO SIGNIFICANT WEATHER AND/OR OBSTRUCTIONS TO VISIBILITY.

KYZ001>023-026-027-061>063-070>075-232100-
WESTERN AND SOUTH CENTRAL KENTUCKY

CITY           SKY/WX    TMP DP  RH WIND       PRES   REMARKS
PADUCAH        LGT RAIN  56  55  97 E8        29.43F FOG
HENDERSON      CLOUDY    54  52  94 SE6       29.50F
OWENSBORO      LGT RAIN  58  56  93 S16       29.52F FOG
HOPKINSVILLE   LGT RAIN  57  57 100 SE13      29.47F
BOWLING GREEN  RAIN      58  54  86 SE12      29.56F
GLASGOW        NOT AVBL
$$

KYZ024-025-028>034-038-045-046-053-232100-
NORTH CENTRAL KENTUCKY

CITY           SKY/WX    TMP DP  RH WIND       PRES   REMARKS
LOUISVILLE/SDF LGT RAIN  55  51  86 SE12      29.61F FOG
LOUISVILLE/LOU LGT RAIN  54  51  90 VRB6      29.62F
FORT KNOX      LGT RAIN  54  52  94 E13       29.58F FOG
$$

KYZ035>037-039>044-047>052-055>060-089>105-232100-
NORTHEAST KENTUCKY

CITY           SKY/WX    TMP DP  RH WIND       PRES   REMARKS
LEXINGTON      LGT RAIN  52  50  93 SE15      29.69F
COVINGTON      LGT RAIN  57  49  74 SE13      29.68F
FRANKFORT      LGT RAIN  52  49  89 E10       29.66F
$$

KYZ054-064>069-076>088-106>120-232100-
SOUTHEAST KENTUCKY

CITY           SKY/WX    TMP DP  RH WIND       PRES   REMARKS
JACKSON        LGT RAIN  54  49  83 VRB6      29.76F
LONDON         CLOUDY    56  51  84 VRB7      29.71F
SOMERSET       NOT AVBL
MIDDLESBORO    CLOUDY    55  51  85 SE3       29.78F
MONTICELLO     CLOUDY    57  51  80 SE9       29.67F
$$




USA.gov is the U.S. government's official web portal to all federal, state and local government web resources and services.